sat.trackr.live / text

‹ back to catalog

STARLINK-31638

NORAD 59489 · 2024-071F

PAYLOAD ACTIVE UNKNOWN

§ Identity

Operator
Country
US
Launch date
2024-04-13
Launch site
AFETR
Launch vehicle
Mass (kg)
RCS (m²)

Purposes: comms

External: N2YO · Heavens-Above · Gunter

§ Orbital elements

Epoch: 2026-05-25T00:57:23.444352Z

Period
94.27 min
Inclination
43.0051°
Eccentricity
0.0001766
Mean motion
15.27572642 rev/d
Perigee alt
481.9 km
Apogee alt
484.3 km
Semi-major
6,861.2 km
B*
-1.8986e-5
RAAN
268.4466°
Arg perigee
280.2523°
Mean anomaly
79.8130°
Rev number
11,988

§ Raw data

STARLINK-316381 59489U 24071F   26145.03985468 -.00000785  00000+0 -18986-4 0  99972 59489  43.0051 268.4466 0001766 280.2523  79.8130 15.27572642119884

JSON: /api/v1/satellites/59489 · /tle

For live sub-satellite position, see the globe view (requires WebGL).

§ Visibility from observer

Set your observer location to see the next 7 days of passes ≥ 10°. The values pass through the URL so the page stays shareable.

No JS? Fill the form by hand. The geolocation button needs JavaScript.